#timestamp,LO_Frequency,Hit 
1502946015.0,286046999.7,N
1502946015.9,286046999.7,N
1502946035.8,286047004.0,N
1502946055.6,286047001.6,N
1502946075.4,286046999.8,N
1502946095.2,286047000.6,N
1502946115.1,286047001.0,N
1502946116.0,286047001.0,N
1502946135.8,286046998.6,N
1502946155.6,286046999.0,N
1502946175.5,286046996.6,N
1502946195.3,286046994.9,N
1502946215.1,286046998.9,N
1502946235.9,286046999.2,N
1502946255.7,286046999.1,N
1502946275.5,286046997.9,N
1502946295.4,286046995.1,N
1502946315.2,286046996.2,N
1502946335.0,286046995.3,N
1502946335.9,286046995.3,N
1502946355.8,286046997.6,N
1502946375.6,286046997.1,N
1502946395.4,286046997.3,N
1502946415.9,286046999.1,N
1502946435.7,286046998.8,N
1502946455.5,286046999.1,N
1502946475.4,286046997.0,N
1502946495.2,286046997.5,N
1502946515.0,286046996.8,N
1502946515.9,286046996.8,N
1502946535.8,286046997.1,N
1502946555.6,286046997.6,N
1502946575.4,286046997.0,N
1502946595.3,286046997.1,N
1502946615.1,286046995.0,P
1502946635.8,286047000.6,N
1502946655.7,286047000.4,N
1502946675.5,286047002.5,N
1502946695.3,286046998.8,N
1502946715.2,286046999.3,N
1502946735.9,286046997.8,N
1502946755.7,286046998.7,N
1502946775.6,286047002.5,N
1502946795.4,286047002.5,N
1502946815.2,286047001.2,N
1502946835.0,286046999.4,N
1502946836.0,286046999.4,N
1502946855.8,286046999.1,N
1502946875.6,286046999.4,N
1502946895.4,286047000.0,N
1502946915.3,286047001.6,N
1502946935.1,286047001.0,N
1502946955.8,286046998.8,N
1502946975.7,286047001.9,N
1502946995.5,286047000.0,N
1502947015.3,286047000.3,N
1502947035.2,286046998.3,N
1502947055.9,286046999.0,N
1502947075.7,286046998.8,N
1502947095.6,286046998.1,N
1502947115.4,286047001.2,N
1502947135.2,286047000.4,N
1502947155.0,286047000.5,N
1502947156.0,286047000.5,N
1502947175.8,286047002.1,N
1502947195.6,286047004.1,P
1502947215.5,286047003.7,N
1502947235.3,286047005.5,P
1502947255.1,286047005.9,N
1502947275.8,286047001.7,N
1502947295.7,286047000.3,N
1502947315.5,286047002.5,N
1502947335.3,286047002.0,N
1502947355.2,286047000.2,N
1502947375.9,286046998.5,N
1502947395.7,286046999.3,N
1502947415.6,286046999.6,N
1502947435.4,286046998.7,N
1502947455.2,286046998.4,N
1502947475.1,286046996.8,N
1502947476.0,286046996.8,N
1502947495.8,286046999.2,N
1502947515.6,286046999.0,N
1502947535.5,286046998.4,N
1502947555.3,286046998.2,N
1502947575.1,286046998.7,N
1502947595.8,286047002.6,N
1502947615.7,286047000.9,N
1502947635.5,286046998.1,N
1502947655.3,286046998.6,N
1502947675.2,286046998.5,N
1502947695.9,286047000.4,N
1502947715.7,286047000.5,N
1502947735.6,286046998.3,N
1502947755.4,286046996.9,N
1502947775.2,286046995.0,N
1502947795.1,286046998.0,N
1502947796.0,286046998.0,N
1502947815.8,286046996.2,N
1502947835.6,286046993.8,P
1502947855.5,286046996.9,N
1502947875.3,286047000.6,N
1502947895.1,286047000.5,N
1502947915.9,286047000.9,N
1502947935.7,286047000.1,N
1502947955.5,286047002.7,N
1502947975.4,286047004.2,N
1502947995.2,286047003.6,N
1502948015.0,286047004.8,N
1502948015.9,286047004.8,N
1502948035.7,286047001.3,N
1502948055.6,286047001.7,N
1502948075.4,286047001.9,N
1502948095.2,286046996.9,N
1502948115.1,286046995.8,N
1502948116.0,286046995.8,N
1502948135.8,286046997.4,N
1502948155.6,286046999.3,N
1502948175.5,286046997.4,N
1502948195.3,286046999.5,N
1502948215.1,286046999.5,N
1502948235.9,286046997.1,N
1502948255.7,286046999.2,N
1502948275.5,286047000.7,N
1502948295.4,286046998.5,N
1502948315.2,286047000.6,N
1502948335.0,286047002.7,N
1502948335.9,286047002.7,N
1502948355.7,286047002.1,N
1502948375.6,286047004.4,N
1502948395.4,286047002.8,N
1502948415.2,286046998.2,N
1502948435.1,286046998.8,N
1502948436.0,286046998.8,N
1502948455.8,286047001.2,N
1502948475.6,286046998.7,N
1502948495.5,286046999.4,N
1502948515.3,286046998.5,N
1502948535.1,286046996.6,N
1502948555.9,286047002.7,N
1502948575.7,286046999.7,N
1502948595.5,286047000.0,N
1502948615.4,286047000.3,N
1502948635.2,286046998.8,N
1502948655.0,286046996.5,N
1502948655.9,286046996.5,N
1502948675.8,286047000.2,N
1502948695.6,286047000.5,N
1502948715.4,286047002.5,N
1502948735.2,286047000.5,N
1502948755.1,286046996.8,N
1502948756.0,286046996.8,N
1502948775.8,286046995.1,N
1502948795.6,286046993.8,N
1502948815.5,286046996.3,N
1502948835.3,286046996.3,N
1502948855.1,286046995.4,N
1502948875.9,286046996.7,N
1502948895.7,286046997.8,N
1502948915.5,286046997.7,N
1502948935.4,286046997.7,N
1502948955.2,286046997.1,N
1502948975.0,286046995.2,N
1502948975.9,286046995.2,N
1502948995.8,286046994.2,N
1502949015.6,286046994.8,N
1502949035.4,286046994.4,N
1502949055.3,286046993.8,N
1502949075.1,286046996.3,N
1502949076.0,286046996.3,N
1502949095.8,286046994.1,N
1502949115.7,286046994.7,N
1502949135.5,286046994.2,N
1502949155.3,286046994.0,N
1502949175.1,286046994.3,N
1502949195.9,286046994.3,N
1502949215.7,286046994.6,N
1502949235.5,286046996.1,N
1502949255.4,286046995.5,N
1502949275.2,286046996.1,N
1502949295.0,286046996.0,P
1502949295.9,286046996.0,P
1502949315.8,286046998.7,P
1502949335.6,286047000.9,N
1502949355.4,286047000.3,N
1502949375.3,286047000.8,N
1502949395.1,286046999.8,N
1502949415.8,286047000.6,N
1502949435.7,286047000.2,N
1502949455.5,286047002.0,N
1502949475.3,286047000.0,N
1502949495.2,286047001.6,N
1502949515.9,286047000.3,N
1502949535.7,286047000.9,N
1502949555.5,286046999.0,N
1502949575.4,286046997.8,N
1502949595.2,286046998.9,N
